#timestamp,LO_Frequency,Hit,StdDev 
1652986815.2,286047002.2,N
1652986835.1,286047001.7,N
1652986836.0,286047001.7,N
1652986855.8,286047001.5,N
1652986875.6,286047003.8,N
1652986895.5,286047003.1,N
1652986915.3,286047003.0,N
1652986935.2,286047001.4,N
1652986955.9,286047002.9,N
1652986975.7,286047003.6,N
1652986995.6,286047002.9,N
1652987015.4,286047003.3,N
1652987035.2,286047003.1,N
1652987055.1,286047004.2,N
1652987056.0,286047004.2,Y
1652987075.8,286047002.4,P
1652987095.7,286047002.2,P
1652987115.5,286047002.4,P
1652987135.4,286047002.6,Y
1652987155.2,286046999.0,P
1652987175.0,286046999.2,N
1652987175.9,286046999.2,N
1652987195.8,286046997.2,N
1652987215.6,286046999.6,N
1652987235.4,286046999.0,N
1652987255.3,286046997.1,N
1652987275.1,286046998.0,N
1652987295.9,286046998.0,N
1652987315.7,286046997.4,N
1652987335.5,286046995.3,Y
1652987355.4,286046997.5,P
1652987375.2,286046997.0,P
1652987395.1,286046996.8,P
1652987396.0,286046996.8,Y
1652987415.8,286047000.6,P
1652987435.6,286046998.4,N
1652987455.5,286046998.8,N
1652987475.3,286046998.4,N
1652987495.2,286046998.2,N
1652987515.9,286046998.2,N
1652987535.7,286046999.8,N
1652987555.6,286047002.7,N
1652987575.4,286047001.9,N
1652987595.2,286047001.3,N
1652987615.1,286047004.3,N
1652987616.0,286047004.3,N
1652987635.8,286047001.7,N
1652987655.7,286047002.6,N
1652987675.5,286046999.8,N
1652987695.3,286046999.8,N
1652987715.2,286047000.1,N
1652987735.9,286047002.0,N
1652987755.7,286047002.8,N
1652987775.6,286047002.8,N
1652987795.4,286047000.2,N
1652987815.2,286047000.2,N
1652987835.1,286046999.9,N
1652987836.0,286046999.9,N
1652987855.8,286047002.4,N
1652987875.7,286047002.3,N
1652987895.5,286046999.8,N
1652987915.3,286047002.4,N
1652987935.2,286047001.4,N
1652987955.0,286047004.3,N
1652987955.9,286047004.3,N
1652987975.8,286047004.3,N
1652987995.6,286047001.8,N
1652988015.4,286047001.7,N
1652988035.3,286047002.2,N
1652988055.1,286047001.8,N
1652988075.8,286047002.5,N
1652988095.7,286047004.4,Y
1652988115.5,286047002.5,P
1652988135.4,286047000.9,N
1652988155.2,286047001.0,N
1652988175.0,286047000.0,N
1652988175.9,286047000.0,N
1652988195.8,286047001.2,N
1652988215.6,286047000.5,N
1652988235.4,286047002.8,Y
1652988255.3,286047000.8,P
1652988275.1,286047000.9,P
1652988295.9,286047000.7,P
1652988315.7,286047000.8,Y
1652988335.5,286046999.0,P
1652988355.4,286046999.3,N
1652988375.2,286046996.6,P
1652988395.1,286046999.4,N
1652988396.0,286046999.4,N
1652988415.8,286046999.6,N
1652988435.6,286046999.4,N
1652988455.5,286046996.7,Y
1652988475.3,286046999.6,P
1652988495.2,286046996.8,P
1652988515.9,286046999.5,N
1652988535.7,286046996.6,N
1652988555.6,286046999.6,N
1652988575.4,286046998.8,N
1652988595.2,286046998.7,N
1652988615.1,286046998.6,N
1652988616.0,286046998.6,N
1652988635.8,286046998.7,N
1652988655.7,286046998.5,N
1652988675.5,286046999.0,N
1652988695.3,286046999.0,N
1652988715.2,286046998.6,N
1652988735.0,286046998.1,N
1652988735.9,286046998.1,N
1652988755.7,286046998.3,N
1652988775.6,286046999.6,N
1652988795.4,286046998.6,N
1652988815.3,286046998.6,N
1652988835.1,286046998.1,N
1652988836.0,286046998.1,N
1652988855.8,286046998.4,N
1652988875.7,286046998.9,N
1652988895.5,286046998.7,N
1652988915.3,286047000.4,N
1652988935.2,286047000.9,N
1652988955.0,286046999.7,N
1652988955.9,286046999.7,N
1652988975.8,286047000.0,N
1652988995.6,286047000.4,N
1652989015.4,286047000.9,N
1652989035.3,286047000.4,N
1652989055.1,286047001.2,N
1652989075.9,286047000.4,N
1652989095.7,286047000.5,N
1652989115.5,286047000.0,N
1652989135.4,286047000.7,N
1652989155.2,286047000.6,N
1652989175.0,286047000.9,N
1652989175.9,286047000.9,N
1652989195.8,286046999.8,N
1652989215.6,286046999.9,N
1652989235.5,286047000.4,N
1652989255.3,286047000.2,N
1652989275.1,286047000.1,N
1652989295.9,286046999.7,N
1652989315.7,286047000.2,N
1652989335.5,286047001.0,N
1652989355.4,286047001.1,N
1652989375.2,286047000.0,N
1652989395.1,286047000.6,N
1652989396.0,286047000.6,N
1652989415.8,286047001.2,N
1652989435.6,286047000.3,N
1652989455.5,286047000.7,N
1652989475.3,286047000.9,N
1652989495.1,286047001.0,N
1652989515.9,286047000.6,N
1652989535.7,286047000.3,N
1652989555.6,286046999.8,N
1652989575.4,286046999.9,N
1652989595.2,286047000.3,N
1652989615.1,286047002.8,Y
1652989616.0,286047002.8,P
1652989635.8,286047002.7,N
1652989655.6,286047000.3,N
1652989675.5,286047000.8,N
1652989695.3,286047000.6,N
1652989715.2,286046999.7,N
1652989735.9,286047000.4,N
1652989755.7,286047000.8,N
1652989775.6,286047000.7,N
1652989795.4,286047000.9,N
1652989815.3,286046998.6,N
1652989835.1,286047001.1,N
1652989836.0,286047001.1,N
1652989855.8,286047000.3,N
1652989875.7,286047002.4,N
1652989895.5,286047000.4,N
1652989915.4,286046999.9,N
1652989935.2,286047000.5,N
1652989955.0,286046999.8,N
1652989955.9,286046999.8,N
1652989975.8,286046999.9,N
1652989995.6,286047000.6,N
1652990015.5,286047000.8,N
1652990035.3,286047000.4,N
1652990055.1,286047000.3,N
1652990075.9,286046999.8,N
1652990095.7,286047000.7,N
1652990115.5,286047000.1,N
1652990135.4,286047000.4,N
1652990155.2,286047000.0,N
1652990175.1,286047001.0,N
1652990176.0,286047001.0,N
1652990195.8,286047002.7,Y
1652990215.6,286047000.1,P
1652990235.5,286047001.0,P
1652990255.3,286047000.9,N
1652990275.2,286047001.2,Y
1652990295.9,286046998.9,P
1652990315.7,286046998.3,N
1652990335.6,286047001.1,N
1652990355.4,286047000.8,N
1652990375.3,286047001.1,N
1652990395.1,286047000.8,N
1652990396.0,286047000.8,N
